Temp
21 20 20 20 21 21 21 19 18 18 18 18 19 19 18 18 18 19 18 19 19 18 18 18 18 18 19 20 20 20 20 21 21 22 22 21 19 19 20 21 21 21 22
20 20 20 20 19 19 21 21 20 19 18 18 19 19 19 18 18 20 19 19 18 18 18 18 18 19 19 20 19 19 20 20 20 20 20 21 20 20 19 22 20 21 21
20 19 19 19 19 21 20 21 21 20 20 19 18 18 19 18 18 19 20 18 18 18 18 18 18 18 18 19 19 20 20 20 20 20 20 21 21 20 20 20 20 21 22
21 20 18 21 21 21 22 20 20 21 21 21 20 19 18 18 18 18 19 20 19 19 19 19 18 18 18 18 18 18 19 19 20 20 20 21 21 21 21 21 22 22 22
18 19 20 19 18 20 20 21 21 20 20 21 21 21 19 19 19 19 19 19 19 19 19 19 18 19 19 19 19 19 19 19 20 21 22 22 22 22 21 21 21 22 22
16 17 18 18 18 18 18 19 21 20 20 20 21 21 21 20 20 19 19 19 19 19 19 19 20 20 20 20 20 20 19 18 18 19 21 21 21 20 21 21 21 21 21
15 16 16 17 17 17 17 17 17 20 19 19 20 20 21 21 21 20 20 19 20 19 19 19 20 20 20 21 21 20 20 20 20 20 20 20 20 19 19 19 19 19 20
15 15 16 16 17 17 17 17 17 17 17 17 19 20 21 21 21 21 21 21 20 19 20 19 19 20 20 19 20 19 20 20 20 21 21 21 22 21 20 19 19 19 19
13 14 15 15 16 16 17 17 17 17 17 17 17 18 19 22 22 22 21 20 20 21 19 19 19 19 20 20 20 20 20 20 20 20 21 21 21 21 21 20 19 20 22
14 13 13 14 15 16 16 16 17 17 17 17 18 17 17 19 21 22 22 21 19 19 20 20 20 20 21 21 22 21 21 20 20 20 20 21 22 22 21 21 21 20 21
14 14 13 13 13 14 15 16 16 17 17 18 17 17 18 18 19 21 22 21 20 20 20 20 20 20 22 22 22 22 22 21 20 20 20 20 20 20 20 20 21 21 21
13 14 14 13 13 13 14 15 16 16 17 17 17 18 18 18 17 19 21 21 21 20 20 21 21 20 20 20 21 22 22 22 19 20 21 21 22 22 22 22 20 20 21
12 13 14 14 14 14 14 14 15 15 15 16 17 17 18 18 18 18 19 21 21 20 20 19 20 20 20 19 19 19 21 20 20 19 20 21 22 22 22 21 21 20 21
8 12 12 13 14 14 14 12 14 14 15 15 16 16 17 18 18 18 19 19 20 21 20 20 20 20 19 18 18 18 20 20 19 19 20 21 21 22 22 21 20 21 21
8 9 10 11 11 13 13 12 12 13 13 13 15 15 16 16 18 18 18 19 19 20 21 20 20 19 19 18 18 18 18 19 20 18 19 20 21 21 21 21 21 21 21
7 8 9 9 10 11 11 13 15 15 15 15 15 16 17 17 17 17 17 19 20 18 19 19 18 19 20 20 20 19 19 19 20 19 19 19 20 21 21 21 21 21 21
6 6 7 7 9 10 10 10 11 16 16 16 16 17 17 17 17 16 17 19 19 19 18 18 18 20 21 20 19 18 18 18 19 19 20 20 20 20 21 21 22 21 21
5 5 5 7 8 8 8 9 9 10 13 16 16 15 17 16 17 17 18 18 20 19 18 18 18 19 19 19 18 18 18 18 19 19 20 20 20 20 20 21 21 21 21
5 4 4 5 6 6 8 9 9 11 12 13 14 12 12 17 18 17 17 18 20 20 19 18 18 18 18 18 18 18 18 18 19 18 18 18 19 19 20 20 21 21 21
4 4 5 5 5 6 7 8 10 11 11 10 11 10 11 13 18 17 17 18 18 17 18 18 19 18 18 18 19 19 19 19 19 19 19 18 18 18 19 19 19 19 19
2 3 3 3 4 4 5 6 7 8 9 8 10 12 13 12 17 17 16 16 18 19 19 18 18 18 18 18 19 19 19 19 19 18 19 18 18 18 19 19 19 19 19
1 1 2 3 3 3 4 5 6 6 6 8 11 11 13 13 14 17 16 17 16 16 19 19 18 18 18 18 20 20 20 19 18 18 18 18 18 18 18 18 19 19 19
0 0 0 1 2 3 3 4 4 5 8 9 10 10 12 13 13 15 15 14 15 15 16 19 19 18 18 19 19 18 20 19 18 18 18 18 17 18 17 18 17 18 18
-1 -1 -1 0 1 1 2 3 4 4 6 7 9 10 11 11 11 13 13 13 14 15 15 16 17 16 16 19 17 18 19 20 20 20 17 17 16 17 17 17 17 16 17
-2 -2 -2 -1 -1 0 1 1 3 4 5 6 7 8 9 10 9 11 12 12 13 13 13 14 15 15 15 15 15 17 19 20 19 16 15 15 15 15 15 15 15 15 16
-3 -3 -3 -2 -2 -2 -1 0 1 3 4 5 6 7 8 8 8 10 11 10 10 10 11 12 12 13 14 14 14 14 14 15 15 14 13 13 14 14 14 14 14 14 14
Height
1570 1573 1577 1580 1583 1586 1588 1591 1594 1598 1600 1601 1602 1604 1606 1608 1609 1610 1612 1613 1612 1613 1614 1616 1617 1618 1620 1621 1621 1621 1621 1621 1620 1618 1617 1616 1612 1610 1608 1606 1604 1603 1603
1567 1568 1572 1575 1579 1582 1583 1587 1589 1592 1595 1597 1600 1601 1603 1605 1607 1607 1608 1611 1610 1610 1611 1612 1613 1615 1614 1616 1618 1617 1618 1618 1617 1615 1614 1613 1611 1608 1605 1602 1602 1602 1598
1563 1564 1567 1570 1573 1575 1579 1582 1585 1587 1589 1593 1595 1596 1600 1602 1603 1606 1605 1606 1607 1607 1609 1609 1609 1611 1611 1613 1614 1615 1615 1614 1613 1612 1611 1610 1608 1606 1604 1601 1599 1599 1597
1559 1561 1562 1563 1566 1569 1572 1577 1579 1582 1584 1586 1589 1592 1594 1597 1599 1601 1601 1603 1603 1604 1605 1605 1606 1607 1608 1609 1610 1610 1610 1610 1611 1609 1608 1607 1605 1604 1601 1600 1598 1597 1593
1553 1557 1559 1561 1561 1563 1565 1568 1573 1575 1577 1580 1583 1585 1588 1592 1594 1595 1597 1598 1599 1600 1601 1601 1602 1603 1604 1605 1607 1607 1607 1607 1607 1606 1605 1604 1602 1601 1599 1597 1595 1593 1590
1549 1551 1555 1557 1558 1559 1560 1561 1564 1567 1570 1573 1575 1578 1581 1584 1588 1590 1592 1594 1595 1596 1597 1597 1598 1598 1599 1599 1600 1601 1601 1601 1600 1601 1601 1599 1598 1597 1596 1594 1592 1589 1587
1545 1548 1549 1551 1552 1553 1554 1556 1557 1559 1562 1564 1567 1570 1572 1574 1578 1581 1584 1587 1590 1591 1591 1592 1593 1594 1593 1593 1594 1595 1595 1595 1594 1594 1592 1592 1592 1592 1591 1589 1587 1585 1584
1542 1541 1541 1544 1545 1548 1549 1549 1551 1553 1555 1557 1558 1560 1562 1565 1569 1572 1576 1578 1581 1583 1584 1585 1585 1587 1588 1588 1588 1589 1588 1588 1588 1588 1586 1586 1585 1585 1585 1585 1582 1580 1578
1539 1538 1539 1540 1540 1541 1543 1544 1546 1547 1548 1550 1551 1552 1553 1555 1559 1563 1567 1569 1570 1571 1574 1576 1577 1578 1579 1581 1582 1583 1582 1582 1583 1582 1581 1580 1579 1580 1580 1579 1578 1578 1575
1539 1538 1536 1536 1535 1535 1536 1538 1540 1542 1542 1543 1544 1546 1546 1547 1549 1553 1557 1559 1561 1562 1563 1564 1566 1568 1570 1571 1572 1573 1572 1573 1576 1577 1575 1572 1572 1572 1572 1571 1570 1571 1570
1538 1537 1535 1532 1531 1530 1530 1530 1533 1536 1535 1535 1536 1538 1539 1540 1540 1542 1547 1549 1550 1553 1555 1556 1557 1557 1558 1561 1562 1563 1562 1567 1569 1568 1567 1566 1566 1566 1565 1562 1562 1562 1563
1535 1534 1533 1531 1529 1527 1525 1524 1527 1528 1528 1527 1528 1529 1531 1531 1532 1533 1535 1538 1541 1542 1544 1548 1549 1551 1550 1550 1552 1552 1555 1558 1560 1560 1559 1558 1558 1559 1559 1558 1556 1553 1553
1531 1530 1529 1528 1527 1525 1524 1522 1522 1521 1521 1521 1520 1520 1522 1525 1525 1526 1526 1528 1531 1532 1533 1536 1540 1542 1542 1541 1541 1543 1546 1546 1546 1548 1548 1549 1550 1551 1551 1550 1549 1546 1544
1527 1526 1525 1523 1522 1521 1521 1520 1516 1515 1515 1515 1516 1514 1515 1517 1518 1520 1520 1518 1519 1521 1522 1525 1528 1530 1531 1531 1531 1531 1533 1534 1535 1537 1539 1541 1542 1542 1542 1542 1542 1542 1541
1523 1521 1520 1520 1518 1514 1515 1515 1513 1512 1511 1509 1509 1510 1508 1508 1509 1511 1512 1513 1514 1512 1514 1515 1517 1519 1519 1520 1522 1523 1525 1524 1524 1527 1529 1531 1532 1533 1533 1534 1534 1534 1534
1517 1517 1515 1513 1513 1513 1509 1506 1507 1505 1504 1503 1501 1500 1501 1500 1501 1501 1502 1503 1505 1508 1507 1506 1506 1509 1510 1512 1513 1515 1516 1517 1519 1520 1521 1522 1523 1524 1525 1526 1526 1526 1526
1509 1510 1509 1506 1506 1506 1505 1503 1498 1497 1496 1495 1494 1492 1492 1492 1491 1490 1491 1493 1495 1499 1500 1502 1502 1501 1501 1502 1502 1504 1505 1508 1510 1511 1512 1513 1513 1514 1516 1516 1517 1517 1517
1503 1502 1501 1500 1498 1498 1497 1497 1495 1491 1486 1485 1486 1484 1484 1484 1482 1481 1480 1484 1484 1486 1486 1491 1493 1495 1493 1492 1492 1495 1498 1500 1502 1503 1504 1504 1505 1505 1506 1506 1507 1508 1508
1495 1494 1493 1493 1490 1488 1488 1488 1487 1484 1481 1479 1478 1477 1477 1475 1475 1476 1471 1470 1472 1476 1474 1482 1484 1486 1484 1484 1484 1486 1488 1490 1491 1492 1493 1494 1495 1497 1497 1497 1498 1499 1499
1487 1486 1484 1482 1480 1478 1478 1477 1477 1477 1475 1473 1472 1472 1470 1466 1464 1463 1462 1459 1461 1467 1469 1472 1474 1475 1473 1474 1475 1477 1479 1481 1482 1483 1483 1483 1484 1485 1485 1487 1487 1487 1487
1481 1480 1476 1473 1472 1471 1470 1468 1468 1467 1466 1465 1462 1463 1461 1457 1454 1454 1453 1451 1450 1452 1457 1459 1464 1462 1462 1463 1464 1467 1470 1472 1473 1474 1475 1475 1475 1475 1474 1475 1476 1477 1478
1473 1470 1466 1465 1464 1462 1461 1460 1459 1458 1457 1454 1453 1452 1451 1449 1445 1444 1441 1440 1441 1443 1447 1449 1452 1453 1453 1453 1456 1459 1461 1462 1464 1466 1466 1466 1466 1465 1465 1464 1465 1467 1467
1466 1462 1459 1456 1454 1453 1452 1451 1450 1449 1447 1445 1443 1441 1440 1437 1437 1434 1434 1435 1435 1436 1438 1440 1443 1445 1445 1444 1448 1450 1449 1449 1451 1454 1457 1457 1457 1454 1455 1455 1455 1456 1457
1457 1454 1450 1446 1444 1444 1442 1442 1441 1439 1437 1435 1434 1432 1430 1430 1430 1427 1427 1430 1428 1430 1431 1431 1434 1436 1436 1435 1439 1442 1440 1440 1441 1447 1448 1446 1446 1446 1447 1447 1447 1447 1448
1451 1446 1443 1439 1436 1435 1433 1432 1431 1430 1428 1427 1426 1424 1423 1424 1426 1422 1422 1425 1422 1424 1426 1423 1425 1426 1426 1429 1429 1430 1430 1432 1435 1439 1441 1441 1440 1439 1439 1439 1440 1440 1439
1448 1444 1439 1435 1431 1429 1425 1424 1422 1421 1419 1418 1417 1417 1417 1417 1415 1412 1415 1419 1417 1418 1419 1418 1420 1421 1421 1420 1421 1423 1425 1426 1429 1432 1434 1435 1435 1434 1433 1434 1435 1434 1434
Wind_Speed
22 23 25 25 26 23 22 21 20 18 16 17 17 15 13 13 12 12 12 10 10 11 12 12 12 13 11 11 11 10 10 10 12 13 12 13 15 14 14 16 16 17 15
21 23 24 26 24 23 24 23 21 21 20 18 18 16 15 15 15 14 13 11 11 10 11 11 13 12 15 16 13 13 12 13 14 16 15 15 15 15 15 17 15 14 16
20 21 24 23 23 30 28 26 24 22 21 21 19 20 18 16 17 18 17 15 14 13 12 12 12 13 14 12 13 12 11 11 12 13 14 13 14 14 14 15 15 15 14
18 18 20 27 30 30 29 32 27 26 24 24 26 23 20 18 19 19 20 19 16 15 15 15 13 14 14 13 14 13 13 12 13 14 14 14 13 13 13 14 15 14 16
13 18 19 19 19 23 24 24 33 32 30 27 26 28 27 23 21 21 20 21 20 18 16 17 16 15 16 15 14 14 14 13 13 14 15 15 14 13 14 15 16 16 17
13 14 16 18 19 20 20 22 25 30 33 32 31 28 29 27 27 28 26 22 21 21 20 19 19 20 18 17 17 18 18 17 16 16 16 18 19 17 15 16 16 17 17
9 7 11 17 19 19 20 21 23 27 30 33 34 32 33 33 32 33 34 30 24 24 24 22 22 22 24 23 22 21 21 20 21 20 22 21 22 18 17 17 16 18 19
4 11 15 15 15 16 19 22 22 22 25 28 31 35 36 37 35 34 35 36 35 33 30 27 26 25 25 24 23 22 23 22 23 23 25 24 23 21 20 17 19 20 19
12 8 10 19 17 18 19 20 22 24 24 25 26 29 33 38 38 37 35 36 37 42 40 40 36 32 33 32 30 26 25 25 23 26 27 27 27 23 22 23 21 18 21
16 15 13 11 14 16 14 20 20 23 24 23 24 26 29 34 38 39 38 37 32 34 39 42 45 45 42 39 37 36 36 32 25 24 25 30 29 27 26 27 27 22 22
18 17 17 16 14 14 18 18 20 25 26 26 25 26 28 29 34 38 38 39 38 34 34 34 35 39 41 44 44 43 42 35 27 27 26 26 26 24 22 24 26 27 23
21 21 19 18 16 14 14 18 20 22 25 26 28 28 25 29 33 36 38 39 39 38 39 34 33 35 38 39 39 41 41 40 33 32 30 29 27 26 24 24 26 29 25
22 24 24 21 21 18 19 13 15 17 21 26 28 27 26 26 30 28 33 37 38 39 40 37 35 35 36 39 41 38 34 34 35 32 33 31 29 27 27 27 28 29 31
23 24 24 26 25 23 20 18 18 13 15 18 19 24 29 27 25 24 26 30 34 40 41 41 40 39 35 33 32 35 35 36 32 30 30 30 28 27 26 24 24 23 24
23 22 23 21 22 28 24 19 21 20 18 19 17 20 23 25 21 22 23 25 27 30 39 41 37 35 36 32 30 29 27 30 37 32 30 29 28 27 27 25 26 25 25
23 22 21 21 21 22 28 29 28 32 25 25 24 24 28 29 31 32 35 33 31 32 33 32 33 32 33 30 29 29 28 29 28 25 27 28 29 29 28 27 26 26 26
23 22 23 22 21 22 23 24 29 31 31 27 27 24 27 35 32 35 38 40 39 33 33 31 30 33 33 31 34 34 33 30 28 28 29 28 27 27 27 28 27 27 27
22 24 25 23 22 22 22 24 26 28 33 33 26 22 24 30 33 38 42 42 35 31 30 36 33 31 31 32 36 32 28 26 25 27 27 26 25 25 26 27 27 28 27
24 26 21 22 23 24 26 27 28 31 34 33 35 24 23 26 34 32 33 35 30 31 34 47 37 31 26 27 26 29 28 28 27 29 30 29 30 26 26 26 26 28 29
23 26 28 28 26 25 26 27 28 29 30 29 30 28 23 26 29 25 29 26 23 29 27 32 35 33 27 28 31 31 32 32 30 29 29 29 29 29 34 34 34 33 32
21 22 22 24 27 26 25 25 26 26 29 28 29 29 29 26 29 27 25 23 23 24 34 37 30 30 26 29 30 32 32 31 31 32 32 32 31 30 30 32 33 34 31
21 23 23 22 24 25 27 27 26 23 25 29 31 31 29 27 26 30 25 25 26 27 28 29 35 38 36 33 31 31 31 31 30 32 33 35 35 34 32 31 32 35 32
22 21 23 26 25 26 28 28 27 26 28 30 31 31 29 26 25 26 27 25 26 31 28 33 38 36 33 26 29 30 25 27 30 33 38 38 37 33 31 31 31 33 31
20 21 23 24 27 28 29 30 29 30 31 30 29 30 28 25 25 23 23 24 23 25 27 30 32 35 30 30 29 27 25 26 31 40 34 36 35 33 29 27 29 28 27
20 21 20 20 22 26 27 28 29 29 29 27 26 25 25 24 23 20 21 23 22 22 22 20 21 22 22 22 24 26 28 31 27 24 24 26 24 23 20 21 22 24 25
20 19 17 17 17 19 21 23 24 24 24 23 23 23 23 23 20 17 18 19 17 16 15 15 16 16 17 17 16 17 16 17 19 16 14 15 15 15 16 17 17 18 18
Wind_Direction
235 228 228 232 237 240 244 246 240 237 235 229 231 227 225 221 232 229 217 215 227 226 224 231 240 235 236 248 257 262 264 269 274 278 282 301 300 305 300 307 315 323 319
229 236 234 233 232 234 244 251 246 238 237 232 236 238 231 229 228 233 226 223 223 223 231 232 236 241 251 247 251 256 256 258 265 277 286 294 295 292 303 308 312 314 308
234 233 234 231 232 242 243 249 251 249 243 233 234 240 237 234 233 237 234 228 231 233 231 236 238 238 241 235 247 247 266 273 273 280 285 290 288 290 293 311 315 315 323
228 235 237 240 242 252 247 244 247 251 250 246 241 239 240 240 236 238 238 236 235 238 237 238 238 236 239 241 241 250 255 258 270 281 284 286 289 288 296 306 305 308 307
232 232 238 244 245 244 251 246 245 248 251 252 249 247 246 240 241 241 233 234 239 241 240 237 239 238 240 238 239 252 249 259 266 270 275 281 285 286 285 297 300 305 312
243 242 241 242 241 241 246 248 241 241 245 246 249 249 251 243 240 239 237 243 243 243 240 242 240 246 245 247 251 251 251 254 258 260 268 273 277 287 292 292 293 302 305
250 262 258 247 244 239 241 241 243 240 237 242 244 246 248 252 247 240 242 243 241 246 245 243 245 246 254 252 254 254 255 257 263 269 268 268 273 276 282 286 290 288 296
274 252 246 243 245 253 247 243 243 242 238 239 242 245 246 250 251 251 248 249 248 244 245 247 246 241 240 245 247 247 254 258 262 263 269 277 279 282 280 281 284 295 303
353 330 283 265 257 252 248 250 248 245 241 240 241 242 244 247 250 251 250 250 249 250 248 250 247 249 250 247 250 247 249 252 258 268 271 274 277 274 268 270 271 281 288
340 338 332 299 266 253 259 254 256 250 247 244 244 244 246 247 248 247 246 248 246 248 251 253 252 252 255 255 254 255 256 255 255 256 265 270 270 268 265 264 271 268 278
326 326 326 324 305 275 260 258 263 261 255 247 247 248 246 247 251 248 246 246 245 247 247 248 250 254 255 253 255 256 256 259 258 262 263 264 263 262 263 268 267 265 264
315 314 312 316 321 308 275 263 258 259 265 263 256 252 253 256 252 249 247 245 245 244 243 247 251 252 259 263 260 255 258 261 259 257 257 257 258 258 259 258 258 268 268
305 306 305 299 305 307 306 283 266 269 267 264 264 257 255 252 248 258 257 250 247 246 248 246 245 247 253 259 261 261 256 253 250 248 251 254 256 258 256 255 252 255 268
294 297 300 300 294 296 296 299 292 278 275 275 272 272 264 262 257 251 254 263 251 244 244 246 250 249 248 250 256 260 249 247 245 245 248 253 257 256 255 257 256 257 263
285 288 292 298 301 294 292 291 285 278 268 259 261 269 267 260 254 253 250 247 255 259 247 244 244 248 248 248 248 243 246 246 244 243 244 248 251 252 253 253 254 257 257
274 277 281 282 292 293 294 289 277 279 272 264 257 268 274 279 273 271 265 258 252 254 260 254 240 239 241 244 243 243 238 239 241 245 246 247 248 250 253 253 254 254 257
265 271 276 283 284 284 288 291 292 275 273 268 262 262 274 282 276 273 275 268 260 260 259 255 248 238 241 241 243 243 246 243 242 244 243 246 247 247 250 250 249 252 256
264 267 273 276 277 276 279 284 286 290 287 278 273 274 265 278 283 273 278 269 265 247 268 265 247 243 239 240 241 243 245 245 247 243 246 246 245 245 246 248 251 253 254
273 272 270 266 264 269 275 277 279 282 283 282 282 288 284 278 268 275 274 267 255 238 227 243 244 240 241 240 242 250 249 247 249 245 245 245 243 244 249 250 251 252 249
277 278 276 275 271 270 272 274 274 276 280 280 277 276 284 280 283 283 277 259 251 231 235 241 246 239 243 242 246 250 249 250 250 251 255 260 262 257 255 259 258 256 256
276 273 269 267 269 270 267 266 269 271 272 274 277 276 277 282 283 284 284 273 264 253 242 241 247 256 246 247 252 251 253 257 262 264 266 268 267 265 261 260 262 261 260
280 276 273 267 270 268 265 264 262 265 269 272 276 277 274 276 275 278 284 280 270 263 248 249 256 248 253 260 261 259 262 259 263 269 268 269 270 271 270 262 257 257 259
284 283 279 271 267 265 266 263 263 262 264 268 275 278 274 275 275 275 276 276 269 260 248 239 245 248 246 251 268 260 260 265 271 274 266 263 266 266 265 261 257 256 256
298 290 286 278 269 265 261 262 262 262 263 265 268 271 271 268 270 271 270 264 258 258 247 240 242 248 252 253 246 251 262 270 274 277 265 260 259 256 257 261 255 245 243
322 309 299 291 277 268 262 261 258 257 259 259 259 261 264 261 258 256 257 255 247 246 243 237 239 239 239 244 247 246 249 252 256 257 257 261 256 257 262 257 245 243 241
342 328 310 299 289 278 268 264 259 256 254 255 255 250 252 255 255 256 254 249 236 231 225 224 227 226 231 232 233 233 240 243 246 236 242 251 255 258 258 254 253 254 256